• In Netherlands
  • List of Countries
  • For 7 days
  • Water Temperature
  • Satellite Maps
  • Weather Map
  • Weather Widgets
  • user-avatar
    Login

    Hourly Weather Laszkar Gah

    Today, 22 February, Wednesday

    Time Temperature Precipitation Wind Pressure Humidity
    00:00 +9°C° 0 mm 1 mps 694 mmHg 41%
    01:00 +8°C° 0 mm 0 mps 693 mmHg 43%
    02:00 +7°C° 0 mm 0 mps 693 mmHg 43%
    03:00 +7°C° 0 mm 0 mps 693 mmHg 43%
    04:00 +7°C° 0 mm 0 mps 693 mmHg 44%
    05:00 +8°C° 0 mm 1 mps 693 mmHg 43%
    06:00 +8°C° 0 mm 1 mps 694 mmHg 42%
    07:00 +8°C° 0 mm 1 mps 694 mmHg 42%
    08:00 +9°C° 0 mm 1 mps 694 mmHg 37%
    09:00 +11°C° 0 mm 1 mps 695 mmHg 32%
    10:00 +12°C° 0 mm 2 mps 695 mmHg 27%
    11:00 +13°C° 0 mm 2 mps 695 mmHg 25%
    12:00 +14°C° 0 mm 2 mps 695 mmHg 23%
    13:00 +15°C° 0 mm 2 mps 695 mmHg 21%
    14:00 +15°C° 0 mm 1 mps 695 mmHg 20%
    15:00 +16°C° 0 mm 1 mps 695 mmHg 18%
    16:00 +16°C° 0 mm 1 mps 694 mmHg 17%
    17:00 +15°C° 0 mm 1 mps 694 mmHg 21%
    18:00 +14°C° 0 mm 1 mps 694 mmHg 25%
    19:00 +13°C° 0 mm 0 mps 695 mmHg 29%
    20:00 +13°C° 0 mm 1 mps 695 mmHg 29%
    21:00 +13°C° 0 mm 1 mps 695 mmHg 30%
    22:00 +12°C° 0 mm 1 mps 695 mmHg 30%
    23:00 +12°C° 0 mm 1 mps 695 mmHg 30%

    Tomorrow, 23 February, Thursday

    Time Temperature Precipitation Wind Pressure Humidity
    00:00 +11°C° 0 mm 1 mps 694 mmHg 30%
    01:00 +11°C° 0 mm 1 mps 694 mmHg 30%
    02:00 +11°C° 0 mm 1 mps 694 mmHg 30%
    03:00 +10°C° 0 mm 1 mps 694 mmHg 31%
    04:00 +9°C° 0 mm 2 mps 694 mmHg 31%
    05:00 +9°C° 0 mm 2 mps 695 mmHg 30%
    06:00 +9°C° 0 mm 2 mps 695 mmHg 30%
    07:00 +9°C° 0 mm 2 mps 695 mmHg 30%
    08:00 +12°C° 0 mm 2 mps 696 mmHg 26%
    09:00 +13°C° 0 mm 2 mps 697 mmHg 22%
    10:00 +15°C° 0 mm 2 mps 697 mmHg 18%
    11:00 +16°C° 0 mm 2 mps 697 mmHg 16%
    12:00 +17°C° 0 mm 2 mps 697 mmHg 15%
    13:00 +19°C° 0 mm 1 mps 697 mmHg 13%
    14:00 +19°C° 0 mm 1 mps 697 mmHg 12%
    15:00 +19°C° 0 mm 1 mps 697 mmHg 12%
    16:00 +19°C° 0 mm 2 mps 696 mmHg 12%
    17:00 +18°C° 0 mm 2 mps 697 mmHg 15%
    18:00 +17°C° 0 mm 2 mps 697 mmHg 17%
    19:00 +16°C° 0 mm 2 mps 697 mmHg 20%
    20:00 +16°C° 0 mm 2 mps 697 mmHg 20%
    21:00 +14°C° 0 mm 3 mps 696 mmHg 20%
    22:00 +14°C° 0 mm 3 mps 696 mmHg 21%
    23:00 +14°C° 0 mm 4 mps 696 mmHg 21%

    Day after tomorrow, 24 February, Friday

    Time Temperature Precipitation Wind Pressure Humidity
    00:00 +13°C° 0 mm 4 mps 696 mmHg 22%
    01:00 +13°C° 0 mm 4 mps 696 mmHg 22%
    02:00 +13°C° 0 mm 4 mps 695 mmHg 23%
    03:00 +13°C° 0 mm 4 mps 695 mmHg 24%
    04:00 +12°C° 0 mm 4 mps 695 mmHg 25%
    05:00 +12°C° 0 mm 4 mps 695 mmHg 26%
    06:00 +12°C° 0 mm 4 mps 695 mmHg 26%
    07:00 +12°C° 0 mm 5 mps 695 mmHg 26%
    08:00 +14°C° 0 mm 5 mps 696 mmHg 23%
    09:00 +15°C° 0 mm 5 mps 696 mmHg 21%
    10:00 +17°C° 0 mm 5 mps 697 mmHg 19%
    11:00 +19°C° 0 mm 4 mps 696 mmHg 19%
    12:00 +20°C° 0 mm 4 mps 696 mmHg 20%
    13:00 +21°C° 0 mm 3 mps 696 mmHg 20%
    14:00 +21°C° 0 mm 3 mps 696 mmHg 22%
    15:00 +22°C° 0 mm 3 mps 696 mmHg 23%
    16:00 +22°C° 0 mm 3 mps 696 mmHg 25%
    17:00 +21°C° 0 mm 3 mps 696 mmHg 28%
    18:00 +19°C° 0 mm 2 mps 696 mmHg 32%
    19:00 +18°C° 0 mm 2 mps 696 mmHg 36%
    20:00 +19°C° 0 mm 1 mps 696 mmHg 37%
    21:00 +18°C° 0 mm 1 mps 697 mmHg 39%
    22:00 +16°C° 0 mm 1 mps 697 mmHg 40%
    23:00 +16°C° 0 mm 1 mps 697 mmHg 40%

    25 February, Saturday

    Time Temperature Precipitation Wind Pressure Humidity
    00:00 +16°C° 0 mm 2 mps 697 mmHg 41%
    01:00 +15°C° 0 mm 2 mps 697 mmHg 41%
    02:00 +15°C° 0 mm 2 mps 697 mmHg 41%
    03:00 +14°C° 0 mm 2 mps 697 mmHg 41%
    04:00 +14°C° 0 mm 2 mps 696 mmHg 42%
    05:00 +14°C° 0 mm 2 mps 697 mmHg 42%
    06:00 +14°C° 0 mm 2 mps 697 mmHg 42%
    07:00 +13°C° 0 mm 2 mps 698 mmHg 43%
    08:00 +15°C° 0 mm 2 mps 699 mmHg 38%
    09:00 +16°C° 0 mm 2 mps 699 mmHg 34%
    10:00 +17°C° 0 mm 2 mps 700 mmHg 30%
    11:00 +18°C° 0 mm 3 mps 699 mmHg 29%
    12:00 +19°C° 0 mm 3 mps 699 mmHg 27%
    13:00 +20°C° 0 mm 3 mps 698 mmHg 26%
    14:00 +20°C° 0 mm 4 mps 698 mmHg 25%
    15:00 +20°C° 0 mm 4 mps 698 mmHg 25%
    16:00 +20°C° 0 mm 4 mps 697 mmHg 25%
    17:00 +19°C° 0 mm 4 mps 697 mmHg 28%
    18:00 +18°C° 0 mm 3 mps 697 mmHg 31%
    19:00 +17°C° 0 mm 3 mps 697 mmHg 34%
    20:00 +17°C° 0 mm 3 mps 697 mmHg 35%
    21:00 +16°C° 0 mm 3 mps 698 mmHg 36%
    22:00 +14°C° 0 mm 3 mps 698 mmHg 37%
    23:00 +14°C° 0 mm 3 mps 697 mmHg 39%

    26 February, Sunday

    Time Temperature Precipitation Wind Pressure Humidity
    00:00 +14°C° 0 mm 2 mps 697 mmHg 40%
    01:00 +13°C° 0 mm 2 mps 696 mmHg 42%
    02:00 +13°C° 0 mm 2 mps 696 mmHg 43%
    03:00 +12°C° 0 mm 2 mps 696 mmHg 44%
    04:00 +12°C° 0 mm 2 mps 695 mmHg 45%
    05:00 +12°C° 0 mm 2 mps 696 mmHg 45%
    06:00 +12°C° 0 mm 2 mps 696 mmHg 46%
    07:00 +12°C° 0 mm 2 mps 696 mmHg 46%
    08:00 +13°C° 0 mm 2 mps 697 mmHg 41%
    09:00 +14°C° 0 mm 2 mps 697 mmHg 37%
    10:00 +15°C° 0 mm 2 mps 697 mmHg 32%
    11:00 +16°C° 0 mm 2 mps 697 mmHg 30%
    12:00 +17°C° 0 mm 2 mps 697 mmHg 27%
    13:00 +17°C° 0 mm 2 mps 696 mmHg 25%
    14:00 +18°C° 0 mm 2 mps 696 mmHg 23%
    15:00 +18°C° 0 mm 2 mps 696 mmHg 22%
    16:00 +18°C° 0 mm 2 mps 695 mmHg 20%
    17:00 +17°C° 0 mm 2 mps 695 mmHg 23%
    18:00 +18°C° 0 mm 1 mps 696 mmHg 26%
    19:00 +16°C° 0 mm 1 mps 696 mmHg 28%
    20:00 +15°C° 0 mm 1 mps 696 mmHg 30%
    21:00 +15°C° 0 mm 1 mps 696 mmHg 31%
    22:00 +13°C° 0 mm 0 mps 696 mmHg 33%
    23:00 +13°C° 0 mm 0 mps 695 mmHg 34%

    27 February, Monday

    Time Temperature Precipitation Wind Pressure Humidity
    00:00 +12°C° 0 mm 0 mps 695 mmHg 34%
    01:00 +12°C° 0 mm 0 mps 695 mmHg 35%
    02:00 +12°C° 0 mm 1 mps 695 mmHg 35%
    03:00 +12°C° 0 mm 1 mps 695 mmHg 35%
    04:00 +12°C° 0 mm 1 mps 695 mmHg 35%
    05:00 +12°C° 0 mm 1 mps 695 mmHg 36%
    06:00 +12°C° 0 mm 2 mps 696 mmHg 37%
    07:00 +12°C° 0 mm 2 mps 696 mmHg 38%
    08:00 +13°C° 0 mm 2 mps 697 mmHg 34%
    09:00 +15°C° 0 mm 2 mps 697 mmHg 31%
    10:00 +16°C° 0 mm 2 mps 698 mmHg 27%
    11:00 +17°C° 0 mm 2 mps 697 mmHg 24%
    12:00 +19°C° 0 mm 1 mps 697 mmHg 21%
    13:00 +19°C° 0 mm 1 mps 697 mmHg 19%
    14:00 +20°C° 0 mm 1 mps 697 mmHg 18%
    15:00 +20°C° 0 mm 1 mps 696 mmHg 17%
    16:00 +20°C° 0 mm 1 mps 696 mmHg 17%
    17:00 +20°C° 0 mm 1 mps 696 mmHg 20%
    18:00 +19°C° 0 mm 1 mps 696 mmHg 24%
    19:00 +18°C° 0 mm 1 mps 697 mmHg 27%
    20:00 +18°C° 0 mm 1 mps 697 mmHg 29%
    21:00 +16°C° 0 mm 1 mps 697 mmHg 30%
    22:00 +15°C° 0 mm 2 mps 697 mmHg 31%
    23:00 +15°C° 0 mm 2 mps 697 mmHg 32%
    Show more